Regional Weather Roundup
Issued by NWS

Home | Current Version | Previous Version | Text Only | Print | Product List | Glossary On
Versions: 1 2 3 4 5 6 7 8 9 10 11 12 13 14 15 16 17 18 19 20 21 22 23 24 25 26 27 28 29 30 31 32 33 34 35 36 37 38 39 40 41 42 43 44 45 46 47 48 49 50
000
ASUS43 KBIS 261220
RWRND

NORTH DAKOTA REGIONAL WEATHER ROUNDUP
NATIONAL WEATHER SERVICE BISMARCK ND
600 AM CST FRI DEC 26 2014

NOTE: "FAIR" INDICATES FEW OR NO CLOUDS BELOW 12,000 FEET WITH NO
SIGNIFICANT WEATHER AND/OR OBSTRUCTIONS TO VISIBILITY.


NDZ001>003-009>011-017-261300-
NORTHWEST NORTH DAKOTA

CITY           SKY/WX    TMP DP  RH WIND       PRES   REMARKS
WILLISTON      LGT SNOW  14  10  84 W10       30.12S FOG     WCI   1
6HR MIN TEMP:  14; 6HR MAX TEMP:  16; 6HR PCP: TRACE;

MINOT          CLOUDY     7   3  84 CALM      30.13S
MINOT AFB      CLOUDY     8   5  89 NE6       30.13S WCI  -2
$$

NDZ018>021-031>035-040>046-261300-
SOUTHWEST NORTH DAKOTA

CITY           SKY/WX    TMP DP  RH WIND       PRES   REMARKS
BISMARCK       CLOUDY    16   8  71 NW13      30.13R WCI   2
6HR MIN TEMP:  16; 6HR MAX TEMP:  25;

DICKINSON      CLOUDY    17  11  77 NW6       30.06S WCI   9
GARRISON         N/A     12   8  84 NW8       30.12S WCI   0
6HR MIN TEMP:   8; 6HR MAX TEMP:  19;

HETTINGER ARPT CLOUDY    17  10  74 NW15      30.08R WCI   2
$$

NDZ004>008-012>016-024-026-027-054-261300-
NORTHEAST NORTH DAKOTA

CITY           SKY/WX    TMP DP  RH WIND       PRES   REMARKS
GRAND FORKS    CLOUDY    24  18  77 N8        30.10R WCI  15
GRND FRKS AFB  CLOUDY    24  19  83 N9        30.11R WCI  14
DEVILS LAKE    CLOUDY    19  16  86 N10       30.09R WCI   8
$$

NDZ022-023-025-028>030-036>039-047>053-261300-
SOUTHEAST NORTH DAKOTA

CITY           SKY/WX    TMP DP  RH WIND       PRES   REMARKS
FARGO          CLOUDY    24  20  84 N16       30.07S WCI  11
6HR MIN TEMP:  24; 6HR MAX TEMP:  27;

JAMESTOWN      CLOUDY    21  17  84 N10       30.08R WCI  10
$$



USA.gov is the U.S. government's official web portal to all federal, state and local government web resources and services.